Weather History for Twin Falls, ID

Change the Weather History Date:

Sunday, May 19, 2013

  Actual Average Record
Temperature  
Mean Temperature 56 °F -  
Max Temperature 67 °F 71 °F 88 °F (2002)
Min Temperature 45 °F 44 °F 26 °F (2003)
Degree Days  
Heating Degree Days 9 8  
Month to date heating degree days 127 203  
Since 1 July heating degree days 5579 6001  
Cooling Degree Days 0 1  
Month to date cooling degree days 25 7  
Year to date cooling degree days 25 8  
Growing Degree Days 6 (Base 50)    
Moisture  
Dew Point 33 °F    
Average Humidity 47    
Maximum Humidity 70    
Minimum Humidity 24    
Precipitation  
Precipitation 0.00 in 0.05 in 0.30 in (1987)
Month to date precipitation 0.17 0.84  
Year to date precipitation 2.67 4.81  
Sea Level Pressure  
Sea Level Pressure 30.00 in    
Wind  
Wind Speed 21 mph (WSW)    
Max Wind Speed 31 mph    
Max Gust Speed 38 mph    
Visibility 10 miles    
Events      
T = Trace of Precipitation, MM = Missing Value Source: NWS Daily Summary

Daily Weather History Graph

Daily Weather History Graph

Search for Another Location

Airport:

Trip Planner

Search our weather history database for the weather conditions in past years. The results will help you decide how hot, cold, wet, or windy it might be!

Date:

Astronomy

May. 19, 2013 Rise Set
Actual Time 6:12 AM MDT 8:57 PM MDT
Civil Twilight 5:39 AM MDT 9:30 PM MDT
Nautical Twilight 4:58 AM MDT 10:11 PM MDT
Astronomical Twilight 4:10 AM MDT 10:59 PM MDT
Moon 2:59 PM MDT 2:45 AM MDT
Length of Visible Light 15h 50m
Length of Day
14h 45m
Waxing Gibbous, 66% of the Moon is Illuminated
May 19
Waxing Gibbous
May 24
Full
May 31
Last Quarter
Jun 8
New
Jun 16
First Quarter

Hourly Weather History & Observations

Time (MDT) Temp. Windchill Dew Point Humidity Pressure Visibility Wind Dir Wind Speed Gust Speed Precip Events Conditions
12:53 AM 48.9 °F - 30.9 °F 50% 29.94 in 10.0 mi SSW 13.8 mph - N/A   Mostly Cloudy
1:53 AM 48.0 °F - 32.0 °F 54% 29.94 in 10.0 mi SSW 17.3 mph - N/A   Clear
2:53 AM 48.9 °F - 35.1 °F 59% 29.96 in 10.0 mi WSW 16.1 mph 24.2 mph N/A   Partly Cloudy
4:53 AM 46.0 °F 38.0 °F 36.0 °F 68% 29.96 in 10.0 mi WSW 21.9 mph 27.6 mph N/A   Clear
6:53 AM 45.0 °F 37.6 °F 35.1 °F 68% 30.02 in 10.0 mi WSW 17.3 mph - N/A   Clear
7:53 AM 48.0 °F - 35.1 °F 61% 30.03 in 10.0 mi WSW 21.9 mph 26.5 mph N/A   Clear
8:53 AM 52.0 °F - 36.0 °F 54% 30.04 in 10.0 mi WSW 21.9 mph 28.8 mph N/A   Clear
9:53 AM 55.0 °F - 36.0 °F 49% 30.05 in 10.0 mi West 21.9 mph 29.9 mph N/A   Clear
10:53 AM 57.9 °F - 36.0 °F 44% 30.05 in 10.0 mi West 20.7 mph 32.2 mph N/A   Partly Cloudy
11:53 AM 62.1 °F - 35.1 °F 37% 30.04 in 10.0 mi West 23.0 mph 32.2 mph N/A   Clear
2:53 PM 64.9 °F - 28.9 °F 26% 29.99 in 10.0 mi West 29.9 mph 38.0 mph N/A   Clear
3:53 PM 66.9 °F - 28.9 °F 24% 29.99 in 10.0 mi West 25.3 mph 35.7 mph N/A   Clear
4:53 PM 66.0 °F - 30.0 °F 26% 29.99 in 10.0 mi West 26.5 mph 34.5 mph N/A   Clear
5:53 PM 64.9 °F - 30.9 °F 28% 29.99 in 10.0 mi West 23.0 mph 34.5 mph N/A   Clear
6:53 PM 64.0 °F - 32.0 °F 30% 30.00 in 10.0 mi West 25.3 mph 33.4 mph N/A   Scattered Clouds
7:53 PM 61.0 °F - 32.0 °F 34% 30.02 in 10.0 mi West 17.3 mph 24.2 mph N/A   Overcast
8:53 PM 57.9 °F - 32.0 °F 37% 30.02 in 10.0 mi West 17.3 mph - N/A   Overcast
10:53 PM 55.0 °F - 32.0 °F 42% 30.03 in 10.0 mi WSW 16.1 mph - N/A   Partly Cloudy
11:53 PM 55.0 °F - 33.1 °F 43% 30.03 in 10.0 mi WSW 16.1 mph 25.3 mph N/A   Overcast